Weather History for Redmond, OR

Change the Weather History Date:

Tuesday, April 23, 2013

  Actual Average Record
Temperature  
Mean Temperature 42 °F 46 °F  
Max Temperature 65 °F 61 °F 86 °F (2012)
Min Temperature 18 °F 30 °F 18 °F (2013)
Degree Days  
Heating Degree Days 23 19  
Month to date heating degree days 506 490  
Since 1 July heating degree days 5731 5941  
Cooling Degree Days 0 0  
Month to date cooling degree days 0 0  
Year to date cooling degree days 0 0  
Moisture  
Dew Point 8 °F    
Average Humidity 36    
Maximum Humidity 68    
Minimum Humidity 4    
Precipitation  
Precipitation 0.00 in 0.02 in 0.82 in (2005)
Month to date precipitation 0.10 0.54  
Year to date precipitation 0.85 2.82  
Sea Level Pressure  
Sea Level Pressure 30.26 in    
Wind  
Wind Speed 6 mph (ENE)    
Max Wind Speed 23 mph    
Max Gust Speed 29 mph    
Visibility 10 miles    
Events      
T = Trace of Precipitation, MM = Missing Value Source: NWS Daily Summary

Daily Weather History Graph

Daily Weather History Graph

Search for Another Location

Airport:

Trip Planner

Search our weather history database for the weather conditions in past years. The results will help you decide how hot, cold, wet, or windy it might be!

Date:

Astronomy

Apr. 23, 2013 Rise Set
Actual Time 6:07 AM PDT 7:59 PM PDT
Civil Twilight 5:36 AM PDT 8:30 PM PDT
Nautical Twilight 4:58 AM PDT 9:08 PM PDT
Astronomical Twilight 4:17 AM PDT 9:49 PM PDT
Moon 5:56 PM PDT (4/23) 4:43 AM PDT (4/23)
Length of Visible Light 14h 54m
Length of Day
13h 51m
Waxing Gibbous, 94% of the Moon is Illuminated
Apr 23
Waxing Gibbous
Apr 25
Full
May 2
Last Quarter
May 9
New
May 17
First Quarter

Hourly Weather History & Observations

Time (PDT) Temp. Windchill Dew Point Humidity Pressure Visibility Wind Dir Wind Speed Gust Speed Precip Events Conditions
12:56 AM 27.0 °F - 12.9 °F 56% 30.42 in 10.0 mi Calm Calm - N/A   Clear
1:56 AM 24.1 °F 19.7 °F 14.0 °F 65% 30.41 in 10.0 mi SSE 3.5 mph - N/A   Clear
2:56 AM 23.0 °F 17.0 °F 12.9 °F 65% 30.39 in 10.0 mi SSE 4.6 mph - N/A   Clear
3:56 AM 21.0 °F - 12.0 °F 68% 30.39 in 10.0 mi Calm Calm - N/A   Clear
4:56 AM 19.9 °F 13.4 °F 10.9 °F 68% 30.38 in 10.0 mi SSE 4.6 mph - N/A   Clear
5:56 AM 21.0 °F 13.4 °F 12.0 °F 68% 30.38 in 10.0 mi SE 5.8 mph - N/A   Clear
6:56 AM 21.9 °F - 12.9 °F 68% 30.37 in 10.0 mi Calm Calm - N/A   Clear
7:56 AM 33.1 °F 26.9 °F 15.1 °F 48% 30.34 in 10.0 mi SSE 6.9 mph - N/A   Clear
8:56 AM 39.9 °F 35.8 °F 16.0 °F 38% 30.32 in 10.0 mi SSE 5.8 mph - N/A   Clear
9:56 AM 45.0 °F 42.6 °F 16.0 °F 31% 30.29 in 10.0 mi Variable 4.6 mph - N/A   Clear
10:56 AM 50.0 °F - 12.0 °F 22% 30.27 in 10.0 mi Variable 4.6 mph - N/A   Clear
11:56 AM 54.0 °F - 8.1 °F 16% 30.25 in 10.0 mi Variable 3.5 mph - N/A   Clear
12:56 PM 55.9 °F - 1.0 °F 11% 30.21 in 10.0 mi Calm Calm - N/A   Clear
1:56 PM 61.0 °F - -15.0 °F 4% 30.18 in 10.0 mi NW 8.1 mph - N/A   Clear
2:56 PM 62.1 °F - -0.0 °F 8% 30.17 in 10.0 mi Variable 6.9 mph 18.4 mph N/A   Clear
3:56 PM 63.0 °F - -7.1 °F 6% 30.14 in 8.0 mi NNE 11.5 mph 20.7 mph N/A   Clear
4:56 PM 64.0 °F - 1.9 °F 8% 30.12 in 10.0 mi NNE 12.7 mph 21.9 mph N/A   Mostly Cloudy
5:56 PM 62.1 °F - 5.0 °F 10% 30.12 in 10.0 mi NNE 19.6 mph 26.5 mph N/A   Mostly Cloudy
6:56 PM 57.0 °F - 9.0 °F 15% 30.14 in 10.0 mi NNE 17.3 mph 27.6 mph N/A   Mostly Cloudy
7:56 PM 53.1 °F - 7.0 °F 16% 30.16 in 10.0 mi NNE 15.0 mph 24.2 mph N/A   Mostly Cloudy
8:56 PM 48.0 °F - 8.1 °F 20% 30.19 in 10.0 mi ENE 5.8 mph - N/A   Clear
9:56 PM 45.0 °F - 10.0 °F 24% 30.22 in 10.0 mi Calm Calm - N/A   Clear
10:56 PM 41.0 °F 34.7 °F 12.9 °F 32% 30.21 in 10.0 mi NNE 10.4 mph - N/A   Clear
11:56 PM 39.9 °F 37.8 °F 12.9 °F 33% 30.23 in 10.0 mi North 3.5 mph - N/A   Clear